| time (UTC) | temp F | wind direction | speed MPH | gust MPH | rain 1hr in | rain 24hr in | rain mn in | humidity % | barometer mb |
| 20260905053113 | 85 | 175 | 0.0 | 1.0 | 0.00 | 0.00 | 0.00 | 68 | 1014.1 |
| 20260905052554 | 85 | 174 | 1.0 | 2.0 | 0.00 | 0.00 | 0.00 | 67 | 1014.0 |
| 20260905052033 | 85 | 174 | 1.0 | 1.0 | 0.00 | 0.00 | 0.00 | 67 | 1014.0 |
| 20260905051534 | 85 | 176 | 1.0 | 2.0 | 0.00 | 0.00 | 0.00 | 66 | 1013.9 |
| 20260905051034 | 85 | 180 | 1.0 | 2.0 | 0.00 | 0.00 | 0.00 | 66 | 1013.9 |
| 20260905050535 | 85 | 175 | 1.0 | 1.0 | 0.00 | 0.00 | 0.00 | 65 | 1014.0 |
| 20260905050037 | 86 | 180 | 1.0 | 2.0 | 0.00 | 0.00 | 0.00 | 64 | 1013.9 |
| 20260905045534 | 86 | 179 | 1.0 | 2.0 | 0.00 | 0.00 | 0.00 | 64 | 1014.0 |
| 20260905045034 | 86 | 180 | 1.0 | 2.0 | 0.00 | 0.00 | 0.00 | 63 | 1013.9 |
| 20260905044534 | 86 | 175 | 1.0 | 2.0 | 0.00 | 0.00 | 0.00 | 63 | 1013.9 |
| 20260905044034 | 85 | 171 | 1.0 | 2.0 | 0.00 | 0.00 | 0.00 | 63 | 1013.9 |
| 20260905043534 | 86 | 171 | 1.0 | 1.0 | 0.00 | 0.00 | 0.00 | 63 | 1013.9 |
| 20260905043034 | 86 | 174 | 0.0 | 1.0 | 0.00 | 0.00 | 0.00 | 63 | 1013.9 |
| 20260905042534 | 86 | 174 | 1.0 | 1.0 | 0.00 | 0.00 | 0.00 | 62 | 1013.9 |
| 20260905042034 | 85 | 177 | 1.0 | 2.0 | 0.00 | 0.00 | 0.00 | 63 | 1013.9 |
| 20260905041534 | 85 | 173 | 0.0 | 1.0 | 0.00 | 0.00 | 0.00 | 63 | 1013.8 |
| 20260905041033 | 86 | 0.0 | 0.0 | 0.00 | 0.00 | 0.00 | 62 | 1013.8 | |
| 20260905040533 | 86 | 0.0 | 0.0 | 0.00 | 0.00 | 0.00 | 61 | 1013.7 | |
| 20260905040034 | 87 | 172 | 1.0 | 1.0 | 0.00 | 0.00 | 0.00 | 60 | 1013.6 |
| 20260905035534 | 87 | 171 | 0.0 | 1.0 | 0.00 | 0.00 | 0.00 | 59 | 1013.7 |
| 20260905035034 | 87 | 176 | 1.0 | 2.0 | 0.00 | 0.00 | 0.00 | 59 | 1013.6 |
| 20260905034534 | 87 | 170 | 0.0 | 1.0 | 0.00 | 0.00 | 0.00 | 58 | 1013.5 |
| 20260905034033 | 88 | 175 | 0.0 | 1.0 | 0.00 | 0.00 | 0.00 | 58 | 1013.7 |
| 20260905033534 | 88 | 175 | 1.0 | 1.0 | 0.00 | 0.00 | 0.00 | 58 | 1013.6 |
| 20260905033055 | 88 | 181 | 1.0 | 1.0 | 0.00 | 0.00 | 0.00 | 58 | 1013.6 |
| 20260905032534 | 88 | 183 | 1.0 | 2.0 | 0.00 | 0.00 | 0.00 | 58 | 1013.5 |
| 20260905032033 | 88 | 180 | 1.0 | 1.0 | 0.00 | 0.00 | 0.00 | 58 | 1013.5 |
| 20260905031555 | 88 | 180 | 0.0 | 1.0 | 0.00 | 0.00 | 0.00 | 58 | 1013.4 |
| 20260905031054 | 88 | 179 | 1.0 | 1.0 | 0.00 | 0.00 | 0.00 | 57 | 1013.4 |
| 20260905030534 | 89 | 180 | 0.0 | 1.0 | 0.00 | 0.00 | 0.00 | 57 | 1013.4 |
| 20260905030035 | 89 | 177 | 1.0 | 3.0 | 0.00 | 0.00 | 0.00 | 57 | 1013.3 |
| 20260905025534 | 89 | 170 | 1.0 | 1.0 | 0.00 | 0.00 | 0.00 | 57 | 1013.3 |
| 20260905025054 | 89 | 183 | 1.0 | 2.0 | 0.00 | 0.00 | 0.00 | 56 | 1013.2 |
| 20260905024534 | 90 | 185 | 1.0 | 2.0 | 0.00 | 0.00 | 0.00 | 55 | 1013.3 |
| 20260905024033 | 89 | 188 | 1.0 | 3.0 | 0.00 | 0.00 | 0.00 | 56 | 1013.3 |
| 20260905023533 | 90 | 181 | 1.0 | 2.0 | 0.00 | 0.00 | 0.00 | 56 | 1013.1 |
| 20260905023027 | 89 | 181 | 1.0 | 2.0 | 0.00 | 0.00 | 0.00 | 55 | 1013.0 |
| 20260905022611 | 89 | 178 | 1.0 | 1.0 | 0.00 | 0.00 | 0.00 | 56 | 1013.0 |
| 20260905022050 | 90 | 178 | 1.0 | 2.0 | 0.00 | 0.00 | 0.00 | 55 | 1012.8 |
| 20260905021535 | 90 | 168 | 1.0 | 2.0 | 0.00 | 0.00 | 0.00 | 55 | 1012.9 |
| 20260905021034 | 90 | 178 | 1.0 | 2.0 | 0.00 | 0.00 | 0.00 | 55 | 1012.8 |
| 20260905020554 | 90 | 178 | 1.0 | 2.0 | 0.00 | 0.00 | 0.00 | 54 | 1012.6 |
| 20260905020035 | 90 | 185 | 1.0 | 2.0 | 0.00 | 0.00 | 0.00 | 54 | 1012.5 |
| 20260905015534 | 90 | 176 | 1.0 | 2.0 | 0.00 | 0.00 | 0.00 | 54 | 1012.4 |
| 20260905015054 | 91 | 180 | 1.0 | 2.0 | 0.00 | 0.00 | 0.00 | 53 | 1012.4 |
| 20260905014535 | 90 | 183 | 1.0 | 2.0 | 0.00 | 0.00 | 0.00 | 54 | 1012.3 |
| 20260905014033 | 90 | 179 | 1.0 | 2.0 | 0.00 | 0.00 | 0.00 | 53 | 1012.1 |
| 20260905013534 | 90 | 178 | 1.0 | 2.0 | 0.00 | 0.00 | 0.00 | 54 | 1012.2 |
| 20260905013035 | 90 | 177 | 1.0 | 2.0 | 0.00 | 0.00 | 0.00 | 53 | 1012.0 |
| 20260905012534 | 90 | 174 | 0.0 | 1.0 | 0.00 | 0.00 | 0.00 | 52 | 1012.1 |
| 20260905012033 | 90 | 174 | 0.0 | 1.0 | 0.00 | 0.00 | 0.00 | 52 | 1012.0 |
| 20260905011535 | 90 | 178 | 0.0 | 2.0 | 0.00 | 0.00 | 0.00 | 52 | 1011.9 |
| 20260905011033 | 90 | 0.0 | 0.0 | 0.00 | 0.00 | 0.00 | 52 | 1011.9 | |
| 20260905010534 | 91 | 170 | 0.0 | 1.0 | 0.00 | 0.00 | 0.00 | 51 | 1011.9 |
| 20260905010034 | 91 | 171 | 0.0 | 1.0 | 0.00 | 0.00 | 0.00 | 51 | 1011.8 |
| 20260905005551 | 92 | 169 | 0.0 | 1.0 | 0.00 | 0.00 | 0.00 | 50 | 1011.7 |
| 20260905005114 | 92 | 172 | 0.0 | 1.0 | 0.00 | 0.00 | 0.00 | 49 | 1011.7 |
| 20260905004555 | 93 | 177 | 1.0 | 1.0 | 0.00 | 0.00 | 0.00 | 48 | 1011.6 |
| 20260905004034 | 93 | 177 | 1.0 | 2.0 | 0.00 | 0.00 | 0.00 | 47 | 1011.6 |
| 20260905003533 | 94 | 175 | 1.0 | 1.0 | 0.00 | 0.00 | 0.00 | 47 | 1011.6 |
| 20260905003035 | 94 | 179 | 1.0 | 2.0 | 0.00 | 0.00 | 0.00 | 47 | 1011.6 |
| 20260905002534 | 94 | 181 | 1.0 | 2.0 | 0.00 | 0.00 | 0.00 | 47 | 1011.5 |
| 20260905002034 | 95 | 181 | 2.0 | 3.0 | 0.00 | 0.00 | 0.00 | 46 | 1011.5 |
| 20260905001655 | 95 | 185 | 2.0 | 2.0 | 0.00 | 0.00 | 0.00 | 46 | 1011.4 |
| 20260905001034 | 95 | 190 | 1.0 | 3.0 | 0.00 | 0.00 | 0.00 | 46 | 1011.2 |
| 20260905000534 | 95 | 163 | 0.0 | 1.0 | 0.00 | 0.00 | 0.00 | 46 | 1011.2 |
| 20260905000034 | 96 | 179 | 1.0 | 2.0 | 0.00 | 0.00 | 0.00 | 45 | 1011.2 |
| 20260904235531 | 96 | 176 | 1.0 | 2.0 | 0.00 | 0.00 | 0.00 | 45 | 1011.2 |
| 20260904235114 | 96 | 166 | 1.0 | 2.0 | 0.00 | 0.00 | 0.00 | 45 | 1011.3 |
| 20260904234554 | 96 | 161 | 1.0 | 2.0 | 0.00 | 0.00 | 0.00 | 45 | 1011.2 |
| 20260904234034 | 97 | 147 | 2.0 | 3.0 | 0.00 | 0.00 | 0.00 | 44 | 1011.2 |
| 20260904233533 | 98 | 179 | 2.0 | 3.0 | 0.00 | 0.00 | 0.00 | 43 | 1011.3 |
| 20260904233034 | 98 | 181 | 1.0 | 3.0 | 0.00 | 0.00 | 0.00 | 44 | 1011.3 |
| 20260904232534 | 98 | 139 | 1.0 | 5.0 | 0.00 | 0.00 | 0.00 | 44 | 1011.3 |
| 20260904232034 | 98 | 180 | 1.0 | 2.0 | 0.00 | 0.00 | 0.00 | 44 | 1011.3 |
| 20260904231555 | 98 | 184 | 1.0 | 3.0 | 0.00 | 0.00 | 0.00 | 43 | 1011.3 |
| 20260904231053 | 98 | 208 | 2.0 | 5.0 | 0.00 | 0.00 | 0.00 | 43 | 1011.4 |
| 20260904230534 | 99 | 183 | 1.0 | 3.0 | 0.00 | 0.00 | 0.00 | 43 | 1011.5 |
| 20260904230114 | 99 | 187 | 1.0 | 3.0 | 0.00 | 0.00 | 0.00 | 44 | 1011.3 |
| 20260904225554 | 99 | 184 | 2.0 | 3.0 | 0.00 | 0.00 | 0.00 | 43 | 1011.3 |
| 20260904225033 | 100 | 202 | 2.0 | 5.0 | 0.00 | 0.00 | 0.00 | 43 | 1011.4 |
| 20260904224535 | 100 | 193 | 1.0 | 3.0 | 0.00 | 0.00 | 0.00 | 43 | 1011.5 |
| 20260904224035 | 100 | 190 | 2.0 | 3.0 | 0.00 | 0.00 | 0.00 | 43 | 1011.4 |
| 20260904223533 | 100 | 182 | 1.0 | 3.0 | 0.00 | 0.00 | 0.00 | 43 | 1011.5 |
| 20260904223033 | 99 | 194 | 2.0 | 2.0 | 0.00 | 0.00 | 0.00 | 43 | 1011.5 |
| 20260904222534 | 100 | 188 | 2.0 | 3.0 | 0.00 | 0.00 | 0.00 | 43 | 1011.6 |
| 20260904222019 | 100 | 187 | 1.0 | 2.0 | 0.00 | 0.00 | 0.00 | 43 | 1011.7 |
| 20260904221623 | 100 | 187 | 1.0 | 3.0 | 0.00 | 0.00 | 0.00 | 44 | 1011.6 |
| 20260904221042 | 100 | 149 | 2.0 | 3.0 | 0.00 | 0.00 | 0.00 | 44 | 1011.7 |
| 20260904220534 | 100 | 245 | 2.0 | 5.0 | 0.00 | 0.00 | 0.00 | 43 | 1011.6 |
| 20260904220033 | 100 | 170 | 2.0 | 3.0 | 0.00 | 0.00 | 0.00 | 44 | 1011.6 |
| 20260904215534 | 99 | 190 | 1.0 | 3.0 | 0.00 | 0.00 | 0.00 | 44 | 1011.7 |
| 20260904215027 | 99 | 192 | 2.0 | 6.0 | 0.00 | 0.00 | 0.00 | 45 | 1011.7 |
| 20260904214610 | 99 | 185 | 2.0 | 5.0 | 0.00 | 0.00 | 0.00 | 45 | 1011.7 |
| 20260904214050 | 99 | 198 | 2.0 | 6.0 | 0.00 | 0.00 | 0.00 | 45 | 1011.7 |
| 20260904213534 | 100 | 194 | 2.0 | 3.0 | 0.00 | 0.00 | 0.00 | 44 | 1011.9 |
| 20260904213054 | 99 | 185 | 1.0 | 2.0 | 0.00 | 0.00 | 0.00 | 43 | 1011.8 |
| 20260904212534 | 99 | 197 | 2.0 | 3.0 | 0.00 | 0.00 | 0.00 | 43 | 1011.9 |
| 20260904212034 | 99 | 213 | 2.0 | 3.0 | 0.00 | 0.00 | 0.00 | 43 | 1012.1 |
| 20260904211532 | 98 | 210 | 2.0 | 3.0 | 0.00 | 0.00 | 0.00 | 43 | 1012.1 |
| 20260904211114 | 99 | 201 | 3.0 | 5.0 | 0.00 | 0.00 | 0.00 | 44 | 1012.1 |
| 20260904210554 | 99 | 203 | 2.0 | 3.0 | 0.00 | 0.00 | 0.00 | 44 | 1012.2 |
| 20260904210035 | 99 | 189 | 3.0 | 5.0 | 0.00 | 0.00 | 0.00 | 44 | 1012.3 |
| 20260904205533 | 99 | 197 | 2.0 | 5.0 | 0.00 | 0.00 | 0.00 | 44 | 1012.4 |
| 20260904205033 | 99 | 176 | 2.0 | 3.0 | 0.00 | 0.00 | 0.00 | 44 | 1012.4 |
| 20260904204524 | 99 | 195 | 2.0 | 6.0 | 0.00 | 0.00 | 0.00 | 45 | 1012.5 |
| 20260904204107 | 98 | 203 | 2.0 | 3.0 | 0.00 | 0.00 | 0.00 | 44 | 1012.6 |
| 20260904203626 | 98 | 183 | 2.0 | 3.0 | 0.00 | 0.00 | 0.00 | 46 | 1012.6 |
| 20260904203034 | 98 | 193 | 2.0 | 3.0 | 0.00 | 0.00 | 0.00 | 45 | 1012.7 |
| 20260904202534 | 98 | 180 | 3.0 | 5.0 | 0.00 | 0.00 | 0.00 | 46 | 1012.8 |
| 20260904202033 | 98 | 186 | 3.0 | 5.0 | 0.00 | 0.00 | 0.00 | 45 | 1012.8 |
| 20260904201618 | 98 | 182 | 3.0 | 3.0 | 0.00 | 0.00 | 0.00 | 45 | 1012.9 |
| 20260904201058 | 98 | 202 | 2.0 | 3.0 | 0.00 | 0.00 | 0.00 | 46 | 1013.1 |
| 20260904200538 | 98 | 207 | 2.0 | 3.0 | 0.00 | 0.00 | 0.00 | 46 | 1013.1 |
| 20260904200034 | 97 | 212 | 3.0 | 5.0 | 0.00 | 0.00 | 0.00 | 47 | 1013.2 |
| 20260904195534 | 97 | 197 | 2.0 | 6.0 | 0.00 | 0.00 | 0.00 | 47 | 1013.2 |
| 20260904195033 | 97 | 195 | 2.0 | 5.0 | 0.00 | 0.00 | 0.00 | 48 | 1013.2 |
| 20260904194604 | 97 | 227 | 3.0 | 7.0 | 0.00 | 0.00 | 0.00 | 48 | 1013.3 |
| 20260904194107 | 96 | 194 | 2.0 | 3.0 | 0.00 | 0.00 | 0.00 | 49 | 1013.3 |
| 20260904193546 | 96 | 195 | 2.0 | 5.0 | 0.00 | 0.00 | 0.00 | 50 | 1013.5 |
| 20260904193034 | 95 | 201 | 2.0 | 5.0 | 0.00 | 0.00 | 0.00 | 51 | 1013.5 |
| 20260904192533 | 94 | 189 | 2.0 | 3.0 | 0.00 | 0.00 | 0.00 | 53 | 1013.5 |
| 20260904192033 | 94 | 192 | 2.0 | 5.0 | 0.00 | 0.00 | 0.00 | 53 | 1013.6 |
| 20260904191612 | 94 | 175 | 1.0 | 2.0 | 0.00 | 0.00 | 0.00 | 51 | 1013.7 |
| 20260904191115 | 94 | 210 | 2.0 | 3.0 | 0.00 | 0.00 | 0.00 | 51 | 1013.7 |
| 20260904190554 | 94 | 178 | 2.0 | 3.0 | 0.00 | 0.00 | 0.00 | 49 | 1013.8 |
| 20260904190034 | 94 | 195 | 2.0 | 3.0 | 0.00 | 0.00 | 0.00 | 47 | 1014.0 |
| 20260904185534 | 93 | 188 | 1.0 | 3.0 | 0.00 | 0.00 | 0.00 | 47 | 1014.1 |
| 20260904185034 | 93 | 188 | 2.0 | 3.0 | 0.00 | 0.00 | 0.00 | 47 | 1014.1 |
| 20260904184535 | 95 | 192 | 2.0 | 3.0 | 0.00 | 0.00 | 0.00 | 45 | 1014.3 |
| 20260904184019 | 95 | 195 | 2.0 | 5.0 | 0.00 | 0.00 | 0.00 | 46 | 1014.2 |
| 20260904183603 | 95 | 191 | 2.0 | 3.0 | 0.00 | 0.00 | 0.00 | 46 | 1014.3 |
| 20260904183035 | 94 | 180 | 2.0 | 5.0 | 0.00 | 0.00 | 0.00 | 46 | 1014.3 |
| 20260904182534 | 93 | 167 | 2.0 | 5.0 | 0.00 | 0.00 | 0.00 | 47 | 1014.3 |
| 20260904182034 | 93 | 176 | 2.0 | 3.0 | 0.00 | 0.00 | 0.00 | 47 | 1014.4 |
| 20260904181532 | 93 | 196 | 2.0 | 6.0 | 0.00 | 0.00 | 0.00 | 49 | 1014.6 |
| 20260904181114 | 93 | 180 | 2.0 | 5.0 | 0.00 | 0.00 | 0.00 | 51 | 1014.7 |
| 20260904180554 | 93 | 201 | 2.0 | 5.0 | 0.00 | 0.00 | 0.00 | 51 | 1014.8 |
| 20260904180036 | 92 | 175 | 1.0 | 1.0 | 0.00 | 0.00 | 0.00 | 54 | 1014.7 |
| 20260904175554 | 91 | 190 | 2.0 | 3.0 | 0.00 | 0.00 | 0.00 | 54 | 1014.7 |
| 20260904175114 | 90 | 190 | 2.0 | 5.0 | 0.00 | 0.00 | 0.00 | 56 | 1014.9 |
| 20260904174533 | 90 | 180 | 2.0 | 3.0 | 0.00 | 0.00 | 0.00 | 57 | 1014.9 |
| 20260904174019 | 90 | 181 | 2.0 | 3.0 | 0.00 | 0.00 | 0.00 | 57 | 1015.0 |
| 20260904173603 | 88 | 181 | 2.0 | 5.0 | 0.00 | 0.00 | 0.00 | 59 | 1015.1 |
| 20260904173043 | 87 | 191 | 2.0 | 3.0 | 0.00 | 0.00 | 0.00 | 61 | 1015.1 |
| 20260904172533 | 88 | 185 | 2.0 | 3.0 | 0.00 | 0.00 | 0.00 | 62 | 1015.2 |
| 20260904172034 | 87 | 193 | 2.0 | 3.0 | 0.00 | 0.00 | 0.00 | 66 | 1015.2 |
| 20260904171534 | 85 | 196 | 1.0 | 3.0 | 0.00 | 0.00 | 0.00 | 71 | 1015.3 |
| 20260904171034 | 85 | 182 | 1.0 | 2.0 | 0.00 | 0.00 | 0.00 | 73 | 1015.4 |
| 20260904170533 | 84 | 190 | 2.0 | 2.0 | 0.00 | 0.00 | 0.00 | 73 | 1015.4 |
| 20260904170034 | 84 | 186 | 1.0 | 2.0 | 0.00 | 0.00 | 0.00 | 74 | 1015.5 |
| 20260904165533 | 84 | 188 | 1.0 | 3.0 | 0.00 | 0.00 | 0.00 | 75 | 1015.5 |
| 20260904165033 | 84 | 193 | 1.0 | 3.0 | 0.00 | 0.00 | 0.00 | 75 | 1015.5 |
| 20260904164534 | 84 | 197 | 2.0 | 3.0 | 0.00 | 0.00 | 0.00 | 75 | 1015.6 |
| 20260904164054 | 84 | 185 | 2.0 | 3.0 | 0.00 | 0.00 | 0.00 | 76 | 1015.6 |
| 20260904163534 | 84 | 197 | 2.0 | 3.0 | 0.00 | 0.00 | 0.00 | 77 | 1015.4 |
| 20260904163055 | 84 | 189 | 2.0 | 3.0 | 0.00 | 0.00 | 0.00 | 77 | 1015.7 |
| 20260904162533 | 84 | 184 | 1.0 | 3.0 | 0.00 | 0.00 | 0.00 | 77 | 1015.6 |
| 20260904162034 | 84 | 188 | 1.0 | 5.0 | 0.00 | 0.00 | 0.00 | 77 | 1015.7 |
| 20260904161534 | 84 | 179 | 2.0 | 3.0 | 0.00 | 0.00 | 0.00 | 78 | 1015.5 |
| 20260904161034 | 84 | 209 | 2.0 | 3.0 | 0.00 | 0.00 | 0.00 | 78 | 1015.5 |
| 20260904160553 | 84 | 190 | 2.0 | 5.0 | 0.00 | 0.00 | 0.00 | 76 | 1015.5 |
| 20260904160034 | 85 | 206 | 2.0 | 3.0 | 0.00 | 0.00 | 0.00 | 75 | 1015.6 |
| 20260904155534 | 85 | 202 | 2.0 | 3.0 | 0.00 | 0.00 | 0.00 | 76 | 1015.6 |
| 20260904155033 | 85 | 184 | 2.0 | 3.0 | 0.00 | 0.00 | 0.00 | 75 | 1015.5 |
| 20260904154534 | 85 | 182 | 2.0 | 3.0 | 0.00 | 0.00 | 0.00 | 76 | 1015.5 |
| 20260904154034 | 84 | 204 | 2.0 | 3.0 | 0.00 | 0.00 | 0.00 | 76 | 1015.6 |
| 20260904153619 | 85 | 195 | 2.0 | 5.0 | 0.00 | 0.00 | 0.00 | 75 | 1015.5 |
| 20260904153059 | 84 | 182 | 2.0 | 3.0 | 0.00 | 0.00 | 0.00 | 75 | 1015.6 |
| 20260904152539 | 84 | 191 | 1.0 | 3.0 | 0.00 | 0.00 | 0.00 | 77 | 1015.5 |
| 20260904152054 | 84 | 193 | 2.0 | 3.0 | 0.00 | 0.00 | 0.00 | 77 | 1015.6 |
| 20260904151535 | 84 | 194 | 2.0 | 3.0 | 0.00 | 0.00 | 0.00 | 78 | 1015.5 |
| 20260904151033 | 84 | 183 | 2.0 | 3.0 | 0.00 | 0.00 | 0.00 | 78 | 1015.4 |
| 20260904150534 | 84 | 186 | 2.0 | 3.0 | 0.00 | 0.00 | 0.00 | 78 | 1015.3 |
| 20260904150033 | 84 | 181 | 1.0 | 3.0 | 0.00 | 0.00 | 0.00 | 78 | 1015.2 |
| 20260904145554 | 83 | 188 | 2.0 | 3.0 | 0.00 | 0.00 | 0.00 | 79 | 1015.2 |
| 20260904145034 | 83 | 192 | 2.0 | 3.0 | 0.00 | 0.00 | 0.00 | 80 | 1015.2 |
| 20260904144534 | 83 | 183 | 1.0 | 2.0 | 0.00 | 0.00 | 0.00 | 80 | 1015.3 |
| 20260904144034 | 82 | 181 | 1.0 | 2.0 | 0.00 | 0.00 | 0.00 | 82 | 1015.2 |
| 20260904143531 | 82 | 177 | 1.0 | 3.0 | 0.00 | 0.00 | 0.00 | 83 | 1015.2 |
| 20260904143115 | 82 | 186 | 1.0 | 2.0 | 0.00 | 0.00 | 0.00 | 83 | 1015.3 |
| 20260904142555 | 81 | 167 | 1.0 | 2.0 | 0.00 | 0.00 | 0.00 | 83 | 1015.3 |
| 20260904142033 | 81 | 176 | 1.0 | 2.0 | 0.00 | 0.00 | 0.00 | 83 | 1015.3 |
| 20260904141534 | 81 | 188 | 1.0 | 3.0 | 0.00 | 0.00 | 0.00 | 83 | 1015.2 |
| 20260904141034 | 81 | 186 | 1.0 | 2.0 | 0.00 | 0.00 | 0.00 | 84 | 1015.1 |
| 20260904140534 | 80 | 183 | 1.0 | 3.0 | 0.00 | 0.00 | 0.00 | 85 | 1015.0 |
| 20260904140034 | 80 | 180 | 1.0 | 2.0 | 0.00 | 0.00 | 0.00 | 85 | 1014.9 |
| 20260904135554 | 80 | 186 | 1.0 | 2.0 | 0.00 | 0.00 | 0.00 | 86 | 1014.9 |
| 20260904135033 | 80 | 176 | 1.0 | 2.0 | 0.00 | 0.00 | 0.00 | 87 | 1014.9 |
| 20260904134534 | 80 | 174 | 1.0 | 3.0 | 0.00 | 0.00 | 0.00 | 88 | 1015.0 |
| 20260904134034 | 80 | 181 | 1.0 | 2.0 | 0.00 | 0.00 | 0.00 | 88 | 1014.9 |
| 20260904133534 | 80 | 182 | 1.0 | 2.0 | 0.00 | 0.00 | 0.00 | 88 | 1014.9 |
| 20260904133034 | 80 | 180 | 1.0 | 2.0 | 0.00 | 0.00 | 0.00 | 88 | 1014.7 |
| 20260904132534 | 80 | 183 | 1.0 | 2.0 | 0.00 | 0.00 | 0.00 | 88 | 1014.7 |
| 20260904132034 | 79 | 185 | 1.0 | 2.0 | 0.00 | 0.00 | 0.00 | 89 | 1014.7 |
| 20260904131532 | 79 | 175 | 0.0 | 1.0 | 0.00 | 0.00 | 0.00 | 90 | 1014.6 |
| 20260904131115 | 78 | 183 | 0.0 | 1.0 | 0.00 | 0.00 | 0.00 | 91 | 1014.6 |
| 20260904130554 | 78 | 175 | 0.0 | 1.0 | 0.00 | 0.00 | 0.00 | 91 | 1014.4 |
| 20260904130036 | 78 | 177 | 1.0 | 1.0 | 0.00 | 0.00 | 0.00 | 91 | 1014.5 |
| 20260904125534 | 78 | 172 | 0.0 | 1.0 | 0.00 | 0.00 | 0.00 | 92 | 1014.5 |
| 20260904125054 | 78 | 176 | 0.0 | 1.0 | 0.00 | 0.00 | 0.00 | 92 | 1014.4 |
| 20260904124554 | 78 | 179 | 1.0 | 1.0 | 0.00 | 0.00 | 0.00 | 91 | 1014.4 |
| 20260904124020 | 78 | 177 | 1.0 | 1.0 | 0.00 | 0.00 | 0.00 | 91 | 1014.3 |
| 20260904123603 | 78 | 177 | 1.0 | 1.0 | 0.00 | 0.00 | 0.00 | 92 | 1014.4 |
| 20260904123043 | 78 | 178 | 1.0 | 1.0 | 0.00 | 0.00 | 0.00 | 92 | 1014.3 |
| 20260904122533 | 78 | 181 | 1.0 | 2.0 | 0.00 | 0.00 | 0.00 | 92 | 1014.3 |
| 20260904122033 | 77 | 181 | 1.0 | 2.0 | 0.00 | 0.00 | 0.00 | 92 | 1014.2 |
| 20260904121534 | 77 | 177 | 1.0 | 1.0 | 0.00 | 0.00 | 0.00 | 92 | 1014.1 |
| 20260904121033 | 77 | 176 | 0.0 | 1.0 | 0.00 | 0.00 | 0.00 | 92 | 1014.0 |
| 20260904120554 | 77 | 176 | 1.0 | 1.0 | 0.00 | 0.00 | 0.00 | 92 | 1013.9 |
| 20260904120035 | 77 | 182 | 1.0 | 2.0 | 0.00 | 0.00 | 0.00 | 92 | 1014.0 |
| 20260904115554 | 77 | 177 | 0.0 | 1.0 | 0.00 | 0.00 | 0.00 | 92 | 1014.0 |
| 20260904115033 | 77 | 160 | 1.0 | 2.0 | 0.00 | 0.00 | 0.00 | 92 | 1014.0 |
| 20260904114524 | 78 | 174 | 0.0 | 1.0 | 0.00 | 0.00 | 0.00 | 91 | 1014.0 |
| 20260904114107 | 78 | 170 | 0.0 | 1.0 | 0.00 | 0.00 | 0.00 | 91 | 1014.0 |
| 20260904113547 | 78 | 174 | 1.0 | 1.0 | 0.00 | 0.00 | 0.00 | 91 | 1014.0 |
| 20260904113028 | 78 | 178 | 1.0 | 1.0 | 0.00 | 0.00 | 0.00 | 91 | 1013.9 |
| 20260904112631 | 78 | 175 | 1.0 | 1.0 | 0.00 | 0.00 | 0.00 | 90 | 1013.9 |
| 20260904112051 | 78 | 174 | 1.0 | 1.0 | 0.00 | 0.00 | 0.00 | 90 | 1014.0 |
| 20260904111533 | 78 | 177 | 1.0 | 1.0 | 0.00 | 0.00 | 0.00 | 90 | 1013.9 |
| 20260904111155 | 78 | 174 | 1.0 | 1.0 | 0.00 | 0.00 | 0.00 | 90 | 1013.9 |
| 20260904110555 | 78 | 149 | 1.0 | 2.0 | 0.00 | 0.00 | 0.00 | 89 | 1013.9 |
| 20260904110034 | 78 | 180 | 1.0 | 2.0 | 0.00 | 0.00 | 0.00 | 89 | 1013.9 |
| 20260904105619 | 79 | 177 | 1.0 | 1.0 | 0.00 | 0.00 | 0.00 | 88 | 1013.8 |
| 20260904105059 | 79 | 175 | 1.0 | 1.0 | 0.00 | 0.00 | 0.00 | 88 | 1013.8 |
| 20260904104534 | 79 | 184 | 1.0 | 2.0 | 0.00 | 0.00 | 0.00 | 87 | 1013.8 |
| 20260904104040 | 79 | 179 | 0.0 | 1.0 | 0.00 | 0.00 | 0.00 | 87 | 1013.7 |
| 20260904103547 | 79 | 184 | 1.0 | 3.0 | 0.00 | 0.00 | 0.00 | 87 | 1013.6 |
| 20260904103029 | 79 | 179 | 1.0 | 2.0 | 0.00 | 0.00 | 0.00 | 86 | 1013.6 |
| 20260904102611 | 79 | 183 | 2.0 | 7.0 | 0.00 | 0.00 | 0.00 | 87 | 1013.6 |
| 20260904102051 | 79 | 182 | 2.0 | 2.0 | 0.00 | 0.00 | 0.00 | 87 | 1013.4 |
| 20260904101532 | 79 | 176 | 1.0 | 1.0 | 0.00 | 0.00 | 0.00 | 87 | 1013.5 |
| 20260904101115 | 79 | 182 | 1.0 | 1.0 | 0.00 | 0.00 | 0.00 | 86 | 1013.4 |
| 20260904100555 | 79 | 177 | 1.0 | 2.0 | 0.00 | 0.00 | 0.00 | 85 | 1013.4 |
| 20260904100034 | 79 | 198 | 2.0 | 3.0 | 0.00 | 0.00 | 0.00 | 85 | 1013.4 |
| 20260904095532 | 79 | 169 | 1.0 | 2.0 | 0.00 | 0.00 | 0.00 | 85 | 1013.6 |
| 20260904095135 | 79 | 196 | 2.0 | 5.0 | 0.00 | 0.00 | 0.00 | 86 | 1013.6 |
| 20260904094616 | 79 | 176 | 1.0 | 1.0 | 0.00 | 0.00 | 0.00 | 86 | 1013.5 |
| 20260904094034 | 79 | 166 | 1.0 | 2.0 | 0.00 | 0.00 | 0.00 | 87 | 1013.5 |
| 20260904093639 | 79 | 177 | 1.0 | 1.0 | 0.00 | 0.00 | 0.00 | 87 | 1013.7 |
| 20260904093100 | 79 | 180 | 1.0 | 2.0 | 0.00 | 0.00 | 0.00 | 87 | 1013.5 |
| 20260904092534 | 79 | 186 | 1.0 | 2.0 | 0.00 | 0.00 | 0.00 | 87 | 1013.4 |
| 20260904092020 | 79 | 195 | 2.0 | 3.0 | 0.00 | 0.00 | 0.00 | 87 | 1013.4 |
| 20260904091603 | 79 | 184 | 2.0 | 3.0 | 0.00 | 0.00 | 0.00 | 87 | 1013.4 |
| 20260904091045 | 79 | 178 | 1.0 | 2.0 | 0.00 | 0.00 | 0.00 | 86 | 1013.3 |
| 20260904090534 | 79 | 208 | 2.0 | 3.0 | 0.00 | 0.00 | 0.00 | 86 | 1013.4 |
| 20260904090020 | 79 | 184 | 1.0 | 3.0 | 0.00 | 0.00 | 0.00 | 87 | 1013.3 |
| 20260904085603 | 79 | 177 | 1.0 | 2.0 | 0.00 | 0.00 | 0.00 | 87 | 1013.3 |
| 20260904085045 | 79 | 179 | 1.0 | 3.0 | 0.00 | 0.00 | 0.00 | 87 | 1013.4 |
| 20260904084525 | 79 | 175 | 1.0 | 2.0 | 0.00 | 0.00 | 0.00 | 87 | 1013.3 |
| 20260904084107 | 79 | 181 | 1.0 | 3.0 | 0.00 | 0.00 | 0.00 | 87 | 1013.5 |
| 20260904083547 | 79 | 182 | 1.0 | 2.0 | 0.00 | 0.00 | 0.00 | 86 | 1013.3 |
| 20260904083034 | 79 | 173 | 1.0 | 1.0 | 0.00 | 0.00 | 0.00 | 86 | 1013.4 |
| 20260904082534 | 79 | 174 | 0.0 | 1.0 | 0.00 | 0.00 | 0.00 | 85 | 1013.4 |
| 20260904082019 | 79 | 188 | 1.0 | 2.0 | 0.00 | 0.00 | 0.00 | 85 | 1013.3 |
| 20260904081605 | 79 | 192 | 1.0 | 3.0 | 0.00 | 0.00 | 0.00 | 85 | 1013.4 |
| 20260904081044 | 79 | 179 | 1.0 | 2.0 | 0.00 | 0.00 | 0.00 | 85 | 1013.5 |
| 20260904080533 | 79 | 190 | 2.0 | 5.0 | 0.00 | 0.00 | 0.00 | 84 | 1013.5 |
| 20260904080021 | 79 | 178 | 1.0 | 2.0 | 0.00 | 0.00 | 0.00 | 84 | 1013.4 |
| 20260904075603 | 79 | 185 | 1.0 | 3.0 | 0.00 | 0.00 | 0.00 | 84 | 1013.5 |
| 20260904075044 | 79 | 184 | 1.0 | 2.0 | 0.00 | 0.00 | 0.00 | 83 | 1013.5 |
| 20260904074524 | 80 | 178 | 1.0 | 2.0 | 0.00 | 0.00 | 0.00 | 83 | 1013.5 |
| 20260904074127 | 80 | 182 | 1.0 | 2.0 | 0.00 | 0.00 | 0.00 | 83 | 1013.4 |
| 20260904073547 | 80 | 179 | 1.0 | 2.0 | 0.00 | 0.00 | 0.00 | 83 | 1013.4 |
| 20260904073049 | 80 | 171 | 1.0 | 2.0 | 0.00 | 0.00 | 0.00 | 83 | 1013.4 |
| 20260904072611 | 80 | 180 | 1.0 | 2.0 | 0.00 | 0.00 | 0.00 | 82 | 1013.4 |
| 20260904072051 | 80 | 184 | 2.0 | 3.0 | 0.00 | 0.00 | 0.00 | 82 | 1013.5 |
| 20260904071535 | 80 | 182 | 1.0 | 2.0 | 0.00 | 0.00 | 0.00 | 82 | 1013.7 |
| 20260904071028 | 80 | 177 | 1.0 | 2.0 | 0.00 | 0.00 | 0.00 | 82 | 1013.6 |
| 20260904070631 | 80 | 182 | 1.0 | 2.0 | 0.00 | 0.00 | 0.00 | 82 | 1013.6 |
| 20260904070112 | 80 | 185 | 1.0 | 2.0 | 0.00 | 0.00 | 0.00 | 81 | 1013.7 |
| 20260904065532 | 80 | 179 | 2.0 | 3.0 | 0.00 | 0.00 | 0.00 | 81 | 1013.6 |
| 20260904065135 | 80 | 183 | 1.0 | 2.0 | 0.00 | 0.00 | 0.00 | 80 | 1013.8 |
| 20260904064617 | 80 | 177 | 1.0 | 2.0 | 0.00 | 0.00 | 0.00 | 80 | 1013.8 |
| 20260904064034 | 80 | 178 | 1.0 | 3.0 | 0.00 | 0.00 | 0.00 | 80 | 1013.8 |
| 20260904063619 | 80 | 190 | 2.0 | 2.0 | 0.00 | 0.00 | 0.00 | 80 | 1013.7 |
| 20260904063101 | 80 | 171 | 2.0 | 3.0 | 0.00 | 0.00 | 0.00 | 79 | 1013.7 |
| 20260904062541 | 80 | 187 | 2.0 | 3.0 | 0.00 | 0.00 | 0.00 | 78 | 1013.8 |
| 20260904062020 | 80 | 229 | 2.0 | 6.0 | 0.00 | 0.00 | 0.00 | 77 | 1013.8 |
| 20260904061623 | 80 | 182 | 1.0 | 3.0 | 0.00 | 0.00 | 0.00 | 77 | 1013.8 |
| 20260904061045 | 80 | 176 | 1.0 | 1.0 | 0.00 | 0.00 | 0.00 | 76 | 1013.8 |
| 20260904060534 | 80 | 190 | 1.0 | 2.0 | 0.00 | 0.00 | 0.00 | 76 | 1013.9 |
| 20260904060035 | 80 | 180 | 1.0 | 2.0 | 0.00 | 0.00 | 0.00 | 76 | 1013.9 |
| 20260904055639 | 81 | 172 | 1.0 | 1.0 | 0.00 | 0.00 | 0.00 | 76 | 1013.8 |
| 20260904055119 | 81 | 182 | 1.0 | 2.0 | 0.00 | 0.00 | 0.00 | 75 | 1014.0 |
| 20260904054600 | 81 | 176 | 1.0 | 2.0 | 0.00 | 0.00 | 0.00 | 75 | 1013.9 |
| 20260904054034 | 81 | 181 | 2.0 | 3.0 | 0.00 | 0.00 | 0.00 | 74 | 1013.8 |
| 20260904053534 | 81 | 177 | 1.0 | 2.0 | 0.00 | 0.00 | 0.00 | 75 | 1013.9 |